{"data":{"norad_id":67869,"epoch":"2026-05-25T04:37:11.663040Z","epoch_age_seconds":58371,"freshness":"FRESH","line1":"1 67869U 26034V   26145.19249610  .00019910  00000+0  59840-3 0  9999","line2":"2 67869  53.1578 207.1191 0000943  92.8000 267.3110 15.34423623 15765","mean_motion":15.34423623,"eccentricity":9.43e-5,"inclination_deg":53.1578,"raan_deg":207.1191,"arg_perigee_deg":92.8,"mean_anomaly_deg":267.311,"bstar":0.0005984,"rev_number":1576,"period_min":93.846313261563,"perigee_km":461.98794395988,"apogee_km":463.27811318727,"semimajor_km":6840.7700285736,"source":"CELESTRAK","updated_at":"2026-05-25T13:38:21.728900Z"}}